Flag for Haiti Weather past 2 weeks in Cap-Haïtien, Haiti

Now
70 °F

Passing clouds.


Feels Like: 70 °F
Forecast: 74 / 85 °F
Wind: No wind

Location: Santiago

Current Time: Mar 5, 2015 at 11:46:12 PM

Latest Report: Mar 5, 2015 at 11:00 PM


Visibility: N/A

Pressure: 30.12 "Hg

Humidity: 94%

Dew point: 68 °F

Location of Cap-HaïtienLocation

Historic Weather in Cap-Haïtien — Graph

°F

Cap-Haïtien temperature yesterday

Maximum temperature yesterday: 82 °F (at 1:00 PM)
Minimum temperature yesterday: 66 °F (at 1:00 AM)
Average temperature yesterday: 72 °F

Past Weeks' High & Low Weather Summary

 TemperatureHumidityPressure
High88 °F (Feb 19, 12:00 PM)100% (Feb 19, 4:00 AM)30.21 "Hg (Feb 19, 4:00 AM)
Low64 °F (Feb 23, 6:00 AM)48% (Mar 1, 3:00 PM)29.89 "Hg (Mar 1, 8:00 PM)
Average74 °F84%30.06 "Hg
* Reported Feb 18 10:00 PM — Mar 5 10:00 PM, Cap-Haïtien, Weather by CustomWeather, © 2015

Note: Actual official high and low records may vary slightly from our data, if they occured in-between our weather recording intervals... More about our weather records

Advertising

Cap-Haïtien weather history for previous 24 hours

 ConditionsComfort  
Time TempWeatherWind HumidityBarometerVisibility
10:00 PM
Thu, Mar 5
70 °FPassing clouds.5 mph94%30.12 "HgN/A
9:00 PM72 °FPassing clouds.5 mph83%30.12 "HgN/A
8:00 PM75 °FPassing clouds.5 mph74%30.09 "HgN/A
7:00 PM77 °FPassing clouds.12 mph69%30.07 "HgN/A
6:00 PM77 °FPassing clouds.12 mph69%30.04 "HgN/A
5:00 PM82 °FPassing clouds.10 mph58%30.04 "HgN/A
4:00 PM82 °FScattered clouds.16 mph62%30.01 "HgN/A
3:00 PM82 °FScattered clouds.15 mph62%30.01 "HgN/A
2:00 PM82 °FScattered clouds.13 mph62%30.04 "HgN/A
1:00 PM82 °FScattered clouds.14 mph62%30.07 "HgN/A
12:00 PM82 °FRain. Partly sunny.16 mph58%30.09 "Hg4 mi
11:00 AM81 °FPartly sunny.13 mph66%30.12 "HgN/A
10:00 AM75 °FRain. Partly sunny.13 mph83%30.15 "Hg3 mi
9:00 AM73 °FScattered clouds.10 mph83%30.12 "HgN/A
8:00 AM70 °FRain. Partly sunny.8 mph94%30.12 "Hg5 mi
7:00 AM68 °FRain. Partly sunny.No wind94%30.09 "Hg5 mi
6:00 AM68 °FScattered clouds.5 mph94%30.09 "HgN/A
5:00 AM68 °FPassing clouds.No wind94%30.07 "HgN/A
4:00 AM68 °FPassing clouds.No wind94%30.04 "HgN/A
3:00 AM68 °FPassing clouds.5 mph94%30.04 "HgN/A
2:00 AM68 °FPassing clouds.5 mph94%30.07 "HgN/A
1:00 AM68 °FPassing clouds.5 mph94%30.09 "HgN/A
12:00 AM68 °FPassing clouds.No wind94%30.12 "HgN/A
11:00 PM
Wed, Mar 4
68 °FPassing clouds.5 mph94%30.12 "HgN/A
Weather by CustomWeather, © 2015

See weather overviewHow to use our weather pages